Year,Month,Day,Hour,Minute,Value (Times are PST for temperature in C)
2010,10,20,00,00,6.60
2010,10,20,00,01,6.50
2010,10,20,00,02,6.50
2010,10,20,00,03,6.50
2010,10,20,00,04,6.50
2010,10,20,00,05,6.60
2010,10,20,00,06,6.60
2010,10,20,00,07,6.70
2010,10,20,00,08,6.70
2010,10,20,00,09,6.70
2010,10,20,00,10,6.80
2010,10,20,00,11,6.80
2010,10,20,00,12,6.90
2010,10,20,00,13,7.00
2010,10,20,00,14,7.10
2010,10,20,00,15,7.20
2010,10,20,00,16,7.30
2010,10,20,00,17,7.50
2010,10,20,00,18,7.60
2010,10,20,00,19,7.80
2010,10,20,00,20,7.90
2010,10,20,00,21,8.00
2010,10,20,00,22,8.10
2010,10,20,00,23,8.30
2010,10,20,00,24,8.30
2010,10,20,00,25,8.40
2010,10,20,00,26,8.50
2010,10,20,00,27,8.60
2010,10,20,00,28,8.60
2010,10,20,00,29,8.70
2010,10,20,00,30,8.70
2010,10,20,00,31,8.80
2010,10,20,00,32,8.80
2010,10,20,00,33,8.80
2010,10,20,00,34,8.90
2010,10,20,00,35,8.90
2010,10,20,00,36,8.90
2010,10,20,00,37,9.00
2010,10,20,00,38,9.00
2010,10,20,00,39,9.10
2010,10,20,00,40,9.10
2010,10,20,00,41,9.10
2010,10,20,00,42,9.10
2010,10,20,00,43,9.10
2010,10,20,00,44,9.10
2010,10,20,00,45,9.20
2010,10,20,00,46,9.20
2010,10,20,00,47,9.20
2010,10,20,00,48,9.20
2010,10,20,00,49,9.20
2010,10,20,00,50,9.20
2010,10,20,00,51,9.20
2010,10,20,00,52,9.20
2010,10,20,00,53,9.20
2010,10,20,00,54,9.20
2010,10,20,00,55,9.20
2010,10,20,00,56,9.20
2010,10,20,00,57,9.20
2010,10,20,00,58,9.10
2010,10,20,00,59,9.10
2010,10,20,01,00,9.10
2010,10,20,01,01,9.00
2010,10,20,01,02,8.90
2010,10,20,01,03,8.90
2010,10,20,01,04,8.90
2010,10,20,01,05,8.80
2010,10,20,01,06,8.80
2010,10,20,01,07,8.80
2010,10,20,01,08,8.80
2010,10,20,01,09,8.80
2010,10,20,01,10,8.80
2010,10,20,01,11,8.80
2010,10,20,01,12,8.80
2010,10,20,01,13,8.80
2010,10,20,01,14,8.80
2010,10,20,01,15,8.80
2010,10,20,01,16,8.80
2010,10,20,01,17,8.80
2010,10,20,01,18,8.70
2010,10,20,01,19,8.70
2010,10,20,01,20,8.70
2010,10,20,01,21,8.70
2010,10,20,01,22,8.70
2010,10,20,01,23,8.60
2010,10,20,01,24,8.60
2010,10,20,01,25,8.50
2010,10,20,01,26,8.50
2010,10,20,01,27,8.40
2010,10,20,01,28,8.30
2010,10,20,01,29,8.30
2010,10,20,01,30,8.20
2010,10,20,01,31,8.10
2010,10,20,01,32,8.00
2010,10,20,01,33,8.00
2010,10,20,01,34,7.90
2010,10,20,01,35,7.80
2010,10,20,01,36,7.70
2010,10,20,01,37,7.70
2010,10,20,01,38,7.60
2010,10,20,01,39,7.50
2010,10,20,01,40,7.50
2010,10,20,01,41,7.50
2010,10,20,01,42,7.50
2010,10,20,01,43,7.50
2010,10,20,01,44,7.50
2010,10,20,01,45,7.50
2010,10,20,01,46,7.50
2010,10,20,01,47,7.60
2010,10,20,01,48,7.60
2010,10,20,01,49,7.70
2010,10,20,01,50,7.70
2010,10,20,01,51,7.80
2010,10,20,01,52,7.80
2010,10,20,01,53,7.80
2010,10,20,01,54,7.90
2010,10,20,01,55,8.00
2010,10,20,01,56,8.00
2010,10,20,01,57,8.00
2010,10,20,01,58,8.00
2010,10,20,01,59,8.00
2010,10,20,02,00,7.90
2010,10,20,02,01,7.90
2010,10,20,02,02,7.90
2010,10,20,02,03,7.90
2010,10,20,02,04,7.90
2010,10,20,02,05,7.90
2010,10,20,02,06,7.90
2010,10,20,02,07,7.90
2010,10,20,02,08,8.00
2010,10,20,02,09,8.00
2010,10,20,02,10,8.00
2010,10,20,02,11,8.00
2010,10,20,02,12,8.00
2010,10,20,02,13,8.00
2010,10,20,02,14,8.00
2010,10,20,02,15,7.90
2010,10,20,02,16,7.90
2010,10,20,02,17,7.80
2010,10,20,02,18,7.80
2010,10,20,02,19,7.80
2010,10,20,02,20,7.70
2010,10,20,02,21,7.70
2010,10,20,02,22,7.60
2010,10,20,02,23,7.60
2010,10,20,02,24,7.60
2010,10,20,02,25,7.60
2010,10,20,02,26,7.50
2010,10,20,02,27,7.50
2010,10,20,02,28,7.40
2010,10,20,02,29,7.40
2010,10,20,02,30,7.30
2010,10,20,02,31,7.30
2010,10,20,02,32,7.30
2010,10,20,02,33,7.30
2010,10,20,02,34,7.30
2010,10,20,02,35,7.30
2010,10,20,02,36,7.30
2010,10,20,02,37,7.30
2010,10,20,02,38,7.30
2010,10,20,02,39,7.30
2010,10,20,02,40,7.30
2010,10,20,02,41,7.30
2010,10,20,02,42,7.20
2010,10,20,02,43,7.20
2010,10,20,02,44,7.20
2010,10,20,02,45,7.20
2010,10,20,02,46,7.20
2010,10,20,02,47,7.20
2010,10,20,02,48,7.30
2010,10,20,02,49,7.30
2010,10,20,02,50,7.40
2010,10,20,02,51,7.50
2010,10,20,02,52,7.50
2010,10,20,02,53,7.60
2010,10,20,02,54,7.60
2010,10,20,02,55,7.70
2010,10,20,02,56,7.70
2010,10,20,02,57,7.70
2010,10,20,02,58,7.70
2010,10,20,02,59,7.70
2010,10,20,03,00,7.70
2010,10,20,03,01,7.80
2010,10,20,03,02,7.80
2010,10,20,03,03,7.90
2010,10,20,03,04,7.90
2010,10,20,03,05,7.90
2010,10,20,03,06,7.90
2010,10,20,03,07,7.90
2010,10,20,03,08,7.90
2010,10,20,03,09,7.90
2010,10,20,03,10,7.90
2010,10,20,03,11,7.80
2010,10,20,03,12,7.70
2010,10,20,03,13,7.60
2010,10,20,03,14,7.50
2010,10,20,03,15,7.40
2010,10,20,03,16,7.30
2010,10,20,03,17,7.30
2010,10,20,03,18,7.20
2010,10,20,03,19,7.20
2010,10,20,03,20,7.10
2010,10,20,03,21,7.10
2010,10,20,03,22,7.10
2010,10,20,03,23,7.00
2010,10,20,03,24,7.00
2010,10,20,03,25,6.90
2010,10,20,03,26,6.90
2010,10,20,03,27,6.90
2010,10,20,03,28,6.90
2010,10,20,03,29,6.90
2010,10,20,03,30,6.80
2010,10,20,03,31,6.80
2010,10,20,03,32,6.80
2010,10,20,03,33,6.70
2010,10,20,03,34,6.70
2010,10,20,03,35,6.60
2010,10,20,03,36,6.60
2010,10,20,03,37,6.60
2010,10,20,03,38,6.50
2010,10,20,03,39,6.50
2010,10,20,03,40,6.40
2010,10,20,03,41,6.40
2010,10,20,03,42,6.40
2010,10,20,03,43,6.30
2010,10,20,03,44,6.30
2010,10,20,03,45,6.30
2010,10,20,03,46,6.30
2010,10,20,03,47,6.30
2010,10,20,03,48,6.20
2010,10,20,03,49,6.20
2010,10,20,03,50,6.20
2010,10,20,03,51,6.20
2010,10,20,03,52,6.20
2010,10,20,03,53,6.20
2010,10,20,03,54,6.20
2010,10,20,03,55,6.20
2010,10,20,03,56,6.20
2010,10,20,03,57,6.20
2010,10,20,03,58,6.20
2010,10,20,03,59,6.30
2010,10,20,04,00,6.30
2010,10,20,04,01,6.30
2010,10,20,04,02,6.20
2010,10,20,04,03,6.20
2010,10,20,04,04,6.20
2010,10,20,04,05,6.20
2010,10,20,04,06,6.20
2010,10,20,04,07,6.20
2010,10,20,04,08,6.20
2010,10,20,04,09,6.20
2010,10,20,04,10,6.20
2010,10,20,04,11,6.20
2010,10,20,04,12,6.20
2010,10,20,04,13,6.10
2010,10,20,04,14,6.10
2010,10,20,04,15,6.10
2010,10,20,04,16,6.10
2010,10,20,04,17,6.10
2010,10,20,04,18,6.00
2010,10,20,04,19,6.00
2010,10,20,04,20,5.90
2010,10,20,04,21,5.90
2010,10,20,04,22,5.80
2010,10,20,04,23,5.80
2010,10,20,04,24,5.70
2010,10,20,04,25,5.70
2010,10,20,04,26,5.70
2010,10,20,04,27,5.60
2010,10,20,04,28,5.60
2010,10,20,04,29,5.60
2010,10,20,04,30,5.60
2010,10,20,04,31,5.50
2010,10,20,04,32,5.50
2010,10,20,04,33,5.50
2010,10,20,04,34,5.40
2010,10,20,04,35,5.40
2010,10,20,04,36,5.40
2010,10,20,04,37,5.40
2010,10,20,04,38,5.40
2010,10,20,04,39,5.40
2010,10,20,04,40,5.40
2010,10,20,04,41,5.50
2010,10,20,04,42,5.50
2010,10,20,04,43,5.50
2010,10,20,04,44,5.60
2010,10,20,04,45,5.60
2010,10,20,04,46,5.60
2010,10,20,04,47,5.60
2010,10,20,04,48,5.60
2010,10,20,04,49,5.60
2010,10,20,04,50,5.60
2010,10,20,04,51,5.60
2010,10,20,04,52,5.60
2010,10,20,04,53,5.60
2010,10,20,04,54,5.60
2010,10,20,04,55,5.70
2010,10,20,04,56,5.60
2010,10,20,04,57,5.70
2010,10,20,04,58,5.70
2010,10,20,04,59,5.70
2010,10,20,05,00,5.60
2010,10,20,05,01,5.60
2010,10,20,05,02,5.60
2010,10,20,05,03,5.50
2010,10,20,05,04,5.50
2010,10,20,05,05,5.40
2010,10,20,05,06,5.40
2010,10,20,05,07,5.30
2010,10,20,05,08,5.30
2010,10,20,05,09,5.20
2010,10,20,05,10,5.20
2010,10,20,05,11,5.20
2010,10,20,05,12,5.10
2010,10,20,05,13,5.10
2010,10,20,05,14,5.10
2010,10,20,05,15,5.10
2010,10,20,05,16,5.10
2010,10,20,05,17,5.10
2010,10,20,05,18,5.20
2010,10,20,05,19,5.20
2010,10,20,05,20,5.30
2010,10,20,05,21,5.40
2010,10,20,05,22,5.40
2010,10,20,05,23,5.40
2010,10,20,05,24,5.40
2010,10,20,05,25,5.40
2010,10,20,05,26,5.50
2010,10,20,05,27,5.50
2010,10,20,05,28,5.60
2010,10,20,05,29,5.60
2010,10,20,05,30,5.70
2010,10,20,05,31,5.80
2010,10,20,05,32,5.90
2010,10,20,05,33,5.90
2010,10,20,05,34,6.00
2010,10,20,05,35,6.00
2010,10,20,05,36,6.00
2010,10,20,05,37,5.90
2010,10,20,05,38,5.80
2010,10,20,05,39,5.70
2010,10,20,05,40,5.60
2010,10,20,05,41,5.50
2010,10,20,05,42,5.40
2010,10,20,05,43,5.30
2010,10,20,05,44,5.30
2010,10,20,05,45,5.20
2010,10,20,05,46,5.20
2010,10,20,05,47,5.10
2010,10,20,05,48,5.10
2010,10,20,05,49,5.00
2010,10,20,05,50,5.00
2010,10,20,05,51,5.00
2010,10,20,05,52,4.90
2010,10,20,05,53,4.90
2010,10,20,05,54,4.90
2010,10,20,05,55,4.90
2010,10,20,05,56,5.00
2010,10,20,05,57,5.00
2010,10,20,05,58,5.00
2010,10,20,05,59,5.00
2010,10,20,06,00,5.00
2010,10,20,06,01,5.00
2010,10,20,06,02,5.00
2010,10,20,06,03,5.00
2010,10,20,06,04,5.00
2010,10,20,06,05,5.10
2010,10,20,06,06,5.10
2010,10,20,06,07,5.10
2010,10,20,06,08,5.00
2010,10,20,06,09,5.00
2010,10,20,06,10,5.00
2010,10,20,06,11,5.00
2010,10,20,06,12,5.00
2010,10,20,06,13,5.10
2010,10,20,06,14,5.10
2010,10,20,06,15,5.20
2010,10,20,06,16,5.30
2010,10,20,06,17,5.30
2010,10,20,06,18,5.30
2010,10,20,06,19,5.40
2010,10,20,06,20,5.40
2010,10,20,06,21,5.50
2010,10,20,06,22,5.60
2010,10,20,06,23,5.60
2010,10,20,06,24,5.60
2010,10,20,06,25,5.70
2010,10,20,06,26,5.70
2010,10,20,06,27,5.70
2010,10,20,06,28,5.70
2010,10,20,06,29,5.80
2010,10,20,06,30,5.80
2010,10,20,06,31,5.80
2010,10,20,06,32,5.80
2010,10,20,06,33,5.90
2010,10,20,06,34,5.90
2010,10,20,06,35,5.90
2010,10,20,06,36,5.90
2010,10,20,06,37,5.90
2010,10,20,06,38,5.90
2010,10,20,06,39,5.90
2010,10,20,06,40,5.90
2010,10,20,06,41,6.00
2010,10,20,06,42,6.00
2010,10,20,06,43,6.00
2010,10,20,06,44,6.00
2010,10,20,06,45,6.10
2010,10,20,06,46,6.00
2010,10,20,06,47,6.00
2010,10,20,06,48,6.00
2010,10,20,06,49,6.10
2010,10,20,06,50,6.10
2010,10,20,06,51,6.20
2010,10,20,06,52,6.20
2010,10,20,06,53,6.20
2010,10,20,06,54,6.30
2010,10,20,06,55,6.40
2010,10,20,06,56,6.40
2010,10,20,06,57,6.50
2010,10,20,06,58,6.60
2010,10,20,06,59,6.70
2010,10,20,07,00,6.70
2010,10,20,07,01,6.80
2010,10,20,07,02,6.90
2010,10,20,07,03,7.00
2010,10,20,07,04,7.00
2010,10,20,07,05,7.10
2010,10,20,07,06,7.20
2010,10,20,07,07,7.20
2010,10,20,07,08,7.20
2010,10,20,07,09,7.30
2010,10,20,07,10,7.30
2010,10,20,07,11,7.40
2010,10,20,07,12,7.40
2010,10,20,07,13,7.50
2010,10,20,07,14,7.60
2010,10,20,07,15,7.70
2010,10,20,07,16,7.80
2010,10,20,07,17,7.90
2010,10,20,07,18,7.90
2010,10,20,07,19,8.00
2010,10,20,07,20,8.10
2010,10,20,07,21,8.10
2010,10,20,07,22,8.20
2010,10,20,07,23,8.20
2010,10,20,07,24,8.30
2010,10,20,07,25,8.30
2010,10,20,07,26,8.30
2010,10,20,07,27,8.30
2010,10,20,07,28,8.30
2010,10,20,07,29,8.30
2010,10,20,07,30,8.30
2010,10,20,07,31,8.30
2010,10,20,07,32,8.30
2010,10,20,07,33,8.30
2010,10,20,07,34,8.30
2010,10,20,07,35,8.30
2010,10,20,07,36,8.30
2010,10,20,07,37,8.30
2010,10,20,07,38,8.30
2010,10,20,07,39,8.30
2010,10,20,07,40,8.30
2010,10,20,07,41,8.30
2010,10,20,07,42,8.30
2010,10,20,07,43,8.30
2010,10,20,07,44,8.30
2010,10,20,07,45,8.30
2010,10,20,07,46,8.30
2010,10,20,07,47,8.30
2010,10,20,07,48,8.40
2010,10,20,07,49,8.40
2010,10,20,07,50,8.40
2010,10,20,07,51,8.50
2010,10,20,07,52,8.60
2010,10,20,07,53,8.60
2010,10,20,07,54,8.70
2010,10,20,07,55,8.70
2010,10,20,07,56,8.80
2010,10,20,07,57,8.90
2010,10,20,07,58,8.90
2010,10,20,07,59,9.00
2010,10,20,08,00,9.00
2010,10,20,08,01,9.00
2010,10,20,08,02,9.00
2010,10,20,08,03,9.10
2010,10,20,08,04,9.10
2010,10,20,08,05,9.10
2010,10,20,08,06,9.10
2010,10,20,08,07,9.10
2010,10,20,08,08,9.10
2010,10,20,08,09,9.10
2010,10,20,08,10,9.10
2010,10,20,08,11,9.20
2010,10,20,08,12,9.20
2010,10,20,08,13,9.20
2010,10,20,08,14,9.20
2010,10,20,08,15,9.30
2010,10,20,08,16,9.30
2010,10,20,08,17,9.30
2010,10,20,08,18,9.30
2010,10,20,08,19,9.40
2010,10,20,08,20,9.40
2010,10,20,08,21,9.40
2010,10,20,08,22,9.50
2010,10,20,08,23,9.50
2010,10,20,08,24,9.50
2010,10,20,08,25,9.50
2010,10,20,08,26,9.60
2010,10,20,08,27,9.60
2010,10,20,08,28,9.60
2010,10,20,08,29,9.60
2010,10,20,08,30,9.70
2010,10,20,08,31,9.70
2010,10,20,08,32,9.80
2010,10,20,08,33,9.90
2010,10,20,08,34,10.00
2010,10,20,08,35,10.00
2010,10,20,08,36,10.10
2010,10,20,08,37,10.20
2010,10,20,08,38,10.30
2010,10,20,08,39,10.30
2010,10,20,08,40,10.40
2010,10,20,08,41,10.50
2010,10,20,08,42,10.50
2010,10,20,08,43,10.60
2010,10,20,08,44,10.60
2010,10,20,08,45,10.70
2010,10,20,08,46,10.70
2010,10,20,08,47,10.80
2010,10,20,08,48,10.80
2010,10,20,08,49,10.90
2010,10,20,08,50,10.90
2010,10,20,08,51,10.90
2010,10,20,08,52,11.00
2010,10,20,08,53,11.10
2010,10,20,08,54,11.10
2010,10,20,08,55,11.10
2010,10,20,08,56,11.20
2010,10,20,08,57,11.30
2010,10,20,08,58,11.30
2010,10,20,08,59,11.30
2010,10,20,09,00,11.40
2010,10,20,09,01,11.40
2010,10,20,09,02,11.50
2010,10,20,09,03,11.50
2010,10,20,09,04,11.60
2010,10,20,09,05,11.60
2010,10,20,09,06,11.60
2010,10,20,09,07,11.70
2010,10,20,09,08,11.70
2010,10,20,09,09,11.70
2010,10,20,09,10,11.70
2010,10,20,09,11,11.70
2010,10,20,09,12,11.70
2010,10,20,09,13,11.70
2010,10,20,09,14,11.80
2010,10,20,09,15,11.80
2010,10,20,09,16,11.80
2010,10,20,09,17,11.80
2010,10,20,09,18,11.80
2010,10,20,09,19,11.80
2010,10,20,09,20,11.80
2010,10,20,09,21,11.80
2010,10,20,09,22,11.90
2010,10,20,09,23,11.90
2010,10,20,09,24,11.90
2010,10,20,09,25,12.00
2010,10,20,09,26,12.00
2010,10,20,09,27,12.00
2010,10,20,09,28,12.10
2010,10,20,09,29,12.10
2010,10,20,09,30,12.10
2010,10,20,09,31,12.20
2010,10,20,09,32,12.20
2010,10,20,09,33,12.20
2010,10,20,09,34,12.30
2010,10,20,09,35,12.30
2010,10,20,09,36,12.30
2010,10,20,09,37,12.40
2010,10,20,09,38,12.40
2010,10,20,09,39,12.40
2010,10,20,09,40,12.40
2010,10,20,09,41,12.50
2010,10,20,09,42,12.50
2010,10,20,09,43,12.50
2010,10,20,09,44,12.50
2010,10,20,09,45,12.50
2010,10,20,09,46,12.50
2010,10,20,09,47,12.50
2010,10,20,09,48,12.40
2010,10,20,09,49,12.40
2010,10,20,09,50,12.40
2010,10,20,09,51,12.40
2010,10,20,09,52,12.40
2010,10,20,09,53,12.40
2010,10,20,09,54,12.40
2010,10,20,09,55,12.40
2010,10,20,09,56,12.50
2010,10,20,09,57,12.50
2010,10,20,09,58,12.60
2010,10,20,09,59,12.60
2010,10,20,10,00,12.70
2010,10,20,10,01,12.70
2010,10,20,10,02,12.70
2010,10,20,10,03,12.80
2010,10,20,10,04,12.80
2010,10,20,10,05,12.80
2010,10,20,10,06,12.90
2010,10,20,10,07,12.90
2010,10,20,10,08,12.90
2010,10,20,10,09,13.00
2010,10,20,10,10,13.00
2010,10,20,10,11,13.00
2010,10,20,10,12,13.00
2010,10,20,10,13,13.00
2010,10,20,10,14,12.90
2010,10,20,10,15,13.00
2010,10,20,10,16,13.00
2010,10,20,10,17,13.00
2010,10,20,10,18,13.10
2010,10,20,10,19,13.10
2010,10,20,10,20,13.10
2010,10,20,10,21,13.10
2010,10,20,10,22,13.10
2010,10,20,10,23,13.20
2010,10,20,10,24,13.20
2010,10,20,10,25,13.10
2010,10,20,10,26,13.10
2010,10,20,10,27,13.20
2010,10,20,10,28,13.20
2010,10,20,10,29,13.30
2010,10,20,10,30,13.40
2010,10,20,10,31,13.40
2010,10,20,10,32,13.50
2010,10,20,10,33,13.50
2010,10,20,10,34,13.50
2010,10,20,10,35,13.50
2010,10,20,10,36,13.50
2010,10,20,10,37,13.60
2010,10,20,10,38,13.60
2010,10,20,10,39,13.60
2010,10,20,10,40,13.70
2010,10,20,10,41,13.70
2010,10,20,10,42,13.70
2010,10,20,10,43,13.70
2010,10,20,10,44,13.80
2010,10,20,10,45,13.80
2010,10,20,10,46,13.80
2010,10,20,10,47,13.90
2010,10,20,10,48,13.90
2010,10,20,10,49,13.90
2010,10,20,10,50,14.00
2010,10,20,10,51,14.10
2010,10,20,10,52,14.10
2010,10,20,10,53,14.20
2010,10,20,10,54,14.20
2010,10,20,10,55,14.30
2010,10,20,10,56,14.30
2010,10,20,10,57,14.30
2010,10,20,10,58,14.30
2010,10,20,10,59,14.30
2010,10,20,11,00,14.30
2010,10,20,11,01,14.30
2010,10,20,11,02,14.30
2010,10,20,11,03,14.30
2010,10,20,11,04,14.30
2010,10,20,11,05,14.20
2010,10,20,11,06,14.20
2010,10,20,11,07,14.30
2010,10,20,11,08,14.30
2010,10,20,11,09,14.30
2010,10,20,11,10,14.30
2010,10,20,11,11,14.30
2010,10,20,11,12,14.30
2010,10,20,11,13,14.30
2010,10,20,11,14,14.30
2010,10,20,11,15,14.30
2010,10,20,11,16,14.30
2010,10,20,11,17,14.30
2010,10,20,11,18,14.40
2010,10,20,11,19,14.40
2010,10,20,11,20,14.50
2010,10,20,11,21,14.60
2010,10,20,11,22,14.70
2010,10,20,11,23,14.60
2010,10,20,11,24,14.60
2010,10,20,11,25,14.60
2010,10,20,11,26,14.70
2010,10,20,11,27,14.70
2010,10,20,11,28,14.70
2010,10,20,11,29,14.70
2010,10,20,11,30,14.70
2010,10,20,11,31,14.70
2010,10,20,11,32,14.70
2010,10,20,11,33,14.60
2010,10,20,11,34,14.60
2010,10,20,11,35,14.50
2010,10,20,11,36,14.50
2010,10,20,11,37,14.50
2010,10,20,11,38,14.50
2010,10,20,11,39,14.50
2010,10,20,11,40,14.40
2010,10,20,11,41,14.40
2010,10,20,11,42,14.40
2010,10,20,11,43,14.40
2010,10,20,11,44,14.40
2010,10,20,11,45,14.30
2010,10,20,11,46,14.30
2010,10,20,11,47,14.30
2010,10,20,11,48,14.30
2010,10,20,11,49,14.30
2010,10,20,11,50,14.40
2010,10,20,11,51,14.50
2010,10,20,11,52,14.60
2010,10,20,11,53,14.60
2010,10,20,11,54,14.70
2010,10,20,11,55,14.70
2010,10,20,11,56,14.70
2010,10,20,11,57,14.70
2010,10,20,11,58,14.70
2010,10,20,11,59,14.70
2010,10,20,12,00,14.70
2010,10,20,12,01,14.70
2010,10,20,12,02,14.60
2010,10,20,12,03,14.60
2010,10,20,12,04,14.50
2010,10,20,12,05,14.50
2010,10,20,12,06,14.50
2010,10,20,12,07,14.50
2010,10,20,12,08,14.50
2010,10,20,12,09,14.50
2010,10,20,12,10,14.50
2010,10,20,12,11,14.50
2010,10,20,12,12,14.50
2010,10,20,12,13,14.60
2010,10,20,12,14,14.60
2010,10,20,12,15,14.60
2010,10,20,12,16,14.60
2010,10,20,12,17,14.60
2010,10,20,12,18,14.60
2010,10,20,12,19,14.60
2010,10,20,12,20,14.60
2010,10,20,12,21,14.60
2010,10,20,12,22,14.60
2010,10,20,12,23,14.60
2010,10,20,12,24,14.60
2010,10,20,12,25,14.60
2010,10,20,12,26,14.50
2010,10,20,12,27,14.60
2010,10,20,12,28,14.50
2010,10,20,12,29,14.50
2010,10,20,12,30,14.40
2010,10,20,12,31,14.40
2010,10,20,12,32,14.40
2010,10,20,12,33,14.40
2010,10,20,12,34,14.50
2010,10,20,12,35,14.50
2010,10,20,12,36,14.50
2010,10,20,12,37,14.60
2010,10,20,12,38,14.60
2010,10,20,12,39,14.70
2010,10,20,12,40,14.70
2010,10,20,12,41,14.70
2010,10,20,12,42,14.80
2010,10,20,12,43,14.80
2010,10,20,12,44,14.80
2010,10,20,12,45,14.80
2010,10,20,12,46,14.80
2010,10,20,12,47,14.80
2010,10,20,12,48,14.70
2010,10,20,12,49,14.70
2010,10,20,12,50,14.70
2010,10,20,12,51,14.80
2010,10,20,12,52,14.80
2010,10,20,12,53,14.80
2010,10,20,12,54,14.80
2010,10,20,12,55,14.80
2010,10,20,12,56,14.90
2010,10,20,12,57,14.90
2010,10,20,12,58,14.90
2010,10,20,12,59,15.00
2010,10,20,13,00,15.10
2010,10,20,13,01,15.20
2010,10,20,13,02,15.20
2010,10,20,13,03,15.20
2010,10,20,13,04,15.30
2010,10,20,13,05,15.30
2010,10,20,13,06,15.30
2010,10,20,13,07,15.40
2010,10,20,13,08,15.40
2010,10,20,13,09,15.40
2010,10,20,13,10,15.40
2010,10,20,13,11,15.40
2010,10,20,13,12,15.40
2010,10,20,13,13,15.40
2010,10,20,13,14,15.40
2010,10,20,13,15,15.50
2010,10,20,13,16,15.60
2010,10,20,13,17,15.70
2010,10,20,13,18,15.70
2010,10,20,13,19,15.70
2010,10,20,13,20,15.70
2010,10,20,13,21,15.70
2010,10,20,13,22,15.70
2010,10,20,13,23,15.80
2010,10,20,13,24,15.80
2010,10,20,13,25,15.80
2010,10,20,13,26,15.80
2010,10,20,13,27,15.80
2010,10,20,13,28,15.80
2010,10,20,13,29,15.80
2010,10,20,13,30,15.80
2010,10,20,13,31,15.80
2010,10,20,13,32,15.70
2010,10,20,13,33,15.70
2010,10,20,13,34,15.70
2010,10,20,13,35,15.70
2010,10,20,13,36,15.70
2010,10,20,13,37,15.70
2010,10,20,13,38,15.80
2010,10,20,13,39,15.80
2010,10,20,13,40,15.80
2010,10,20,13,41,15.80
2010,10,20,13,42,15.90
2010,10,20,13,43,16.00
2010,10,20,13,44,16.10
2010,10,20,13,45,16.20
2010,10,20,13,46,16.20
2010,10,20,13,47,16.30
2010,10,20,13,48,16.30
2010,10,20,13,49,16.30
2010,10,20,13,50,16.30
2010,10,20,13,51,16.40
2010,10,20,13,52,16.40
2010,10,20,13,53,16.40
2010,10,20,13,54,16.40
2010,10,20,13,55,16.50
2010,10,20,13,56,16.60
2010,10,20,13,57,16.60
2010,10,20,13,58,16.50
2010,10,20,13,59,16.50
2010,10,20,14,00,16.40
2010,10,20,14,01,16.30
2010,10,20,14,02,16.30
2010,10,20,14,03,16.40
2010,10,20,14,04,16.40
2010,10,20,14,05,16.50
2010,10,20,14,06,16.50
2010,10,20,14,07,16.60
2010,10,20,14,08,16.60
2010,10,20,14,09,16.70
2010,10,20,14,10,16.80
2010,10,20,14,11,16.90
2010,10,20,14,12,16.90
2010,10,20,14,13,17.00
2010,10,20,14,14,17.00
2010,10,20,14,15,17.10
2010,10,20,14,16,17.20
2010,10,20,14,17,17.20
2010,10,20,14,18,17.30
2010,10,20,14,19,17.30
2010,10,20,14,20,17.30
2010,10,20,14,21,17.20
2010,10,20,14,22,17.20
2010,10,20,14,23,17.20
2010,10,20,14,24,17.10
2010,10,20,14,25,17.00
2010,10,20,14,26,16.90
2010,10,20,14,27,16.80
2010,10,20,14,28,16.80
2010,10,20,14,29,16.80
2010,10,20,14,30,16.80
2010,10,20,14,31,16.80
2010,10,20,14,32,16.80
2010,10,20,14,33,16.80
2010,10,20,14,34,16.70
2010,10,20,14,35,16.70
2010,10,20,14,36,16.70
2010,10,20,14,37,16.70
2010,10,20,14,38,16.70
2010,10,20,14,39,16.70
2010,10,20,14,40,16.80
2010,10,20,14,41,16.80
2010,10,20,14,42,16.80
2010,10,20,14,43,16.80
2010,10,20,14,44,16.80
2010,10,20,14,45,16.80
2010,10,20,14,46,16.80
2010,10,20,14,47,16.90
2010,10,20,14,48,16.90
2010,10,20,14,49,17.00
2010,10,20,14,50,17.00
2010,10,20,14,51,17.00
2010,10,20,14,52,17.00
2010,10,20,14,53,16.90
2010,10,20,14,54,16.90
2010,10,20,14,55,16.90
2010,10,20,14,56,16.90
2010,10,20,14,57,16.80
2010,10,20,14,58,16.80
2010,10,20,14,59,16.80
2010,10,20,15,00,16.80
2010,10,20,15,01,16.70
2010,10,20,15,02,16.70
2010,10,20,15,03,16.70
2010,10,20,15,04,16.70
2010,10,20,15,05,16.70
2010,10,20,15,06,16.60
2010,10,20,15,07,16.60
2010,10,20,15,08,16.60
2010,10,20,15,09,16.60
2010,10,20,15,10,16.60
2010,10,20,15,11,16.60
2010,10,20,15,12,16.60
2010,10,20,15,13,16.60
2010,10,20,15,14,16.70
2010,10,20,15,15,16.70
2010,10,20,15,16,16.70
2010,10,20,15,17,16.60
2010,10,20,15,18,16.60
2010,10,20,15,19,16.60
2010,10,20,15,20,16.50
2010,10,20,15,21,16.50
2010,10,20,15,22,16.40
2010,10,20,15,23,16.30
2010,10,20,15,24,16.30
2010,10,20,15,25,16.30
2010,10,20,15,26,16.30
2010,10,20,15,27,16.30
2010,10,20,15,28,16.30
2010,10,20,15,29,16.30
2010,10,20,15,30,16.30
2010,10,20,15,31,16.30
2010,10,20,15,32,16.40
2010,10,20,15,33,16.40
2010,10,20,15,34,16.50
2010,10,20,15,35,16.50
2010,10,20,15,36,16.60
2010,10,20,15,37,16.60
2010,10,20,15,38,16.60
2010,10,20,15,39,16.60
2010,10,20,15,40,16.60
2010,10,20,15,41,16.60
2010,10,20,15,42,16.60
2010,10,20,15,43,16.60
2010,10,20,15,44,16.50
2010,10,20,15,45,16.40
2010,10,20,15,46,16.40
2010,10,20,15,47,16.40
2010,10,20,15,48,16.50
2010,10,20,15,49,16.50
2010,10,20,15,50,16.50
2010,10,20,15,51,16.50
2010,10,20,15,52,16.50
2010,10,20,15,53,16.50
2010,10,20,15,54,16.40
2010,10,20,15,55,16.40
2010,10,20,15,56,16.40
2010,10,20,15,57,16.30
2010,10,20,15,58,16.30
2010,10,20,15,59,16.40
2010,10,20,16,00,16.40
2010,10,20,16,01,16.40
2010,10,20,16,02,16.50
2010,10,20,16,03,16.50
2010,10,20,16,04,16.50
2010,10,20,16,05,16.50
2010,10,20,16,06,16.50
2010,10,20,16,07,16.50
2010,10,20,16,08,16.50
2010,10,20,16,09,16.50
2010,10,20,16,10,16.60
2010,10,20,16,11,16.60
2010,10,20,16,12,16.60
2010,10,20,16,13,16.60
2010,10,20,16,14,16.70
2010,10,20,16,15,16.70
2010,10,20,16,16,16.70
2010,10,20,16,17,16.70
2010,10,20,16,18,16.70
2010,10,20,16,19,16.70
2010,10,20,16,20,16.70
2010,10,20,16,21,16.60
2010,10,20,16,22,16.60
2010,10,20,16,23,16.60
2010,10,20,16,24,16.60
2010,10,20,16,25,16.60
2010,10,20,16,26,16.50
2010,10,20,16,27,16.50
2010,10,20,16,28,16.50
2010,10,20,16,29,16.50
2010,10,20,16,30,16.50
2010,10,20,16,31,16.50
2010,10,20,16,32,16.50
2010,10,20,16,33,16.50
2010,10,20,16,34,16.50
2010,10,20,16,35,16.50
2010,10,20,16,36,16.50
2010,10,20,16,37,16.50
2010,10,20,16,38,16.50
2010,10,20,16,39,16.50
2010,10,20,16,40,16.40
2010,10,20,16,41,16.40
2010,10,20,16,42,16.40
2010,10,20,16,43,16.40
2010,10,20,16,44,16.30
2010,10,20,16,45,16.30
2010,10,20,16,46,16.30
2010,10,20,16,47,16.30
2010,10,20,16,48,16.30
2010,10,20,16,49,16.30
2010,10,20,16,50,16.30
2010,10,20,16,51,16.20
2010,10,20,16,52,16.20
2010,10,20,16,53,16.20
2010,10,20,16,54,16.20
2010,10,20,16,55,16.20
2010,10,20,16,56,16.20
2010,10,20,16,57,16.20
2010,10,20,16,58,16.20
2010,10,20,16,59,16.20
2010,10,20,17,00,16.20
2010,10,20,17,01,16.20
2010,10,20,17,02,16.20
2010,10,20,17,03,16.20
2010,10,20,17,04,16.20
2010,10,20,17,05,16.20
2010,10,20,17,06,16.20
2010,10,20,17,07,16.10
2010,10,20,17,08,16.00
2010,10,20,17,09,16.00
2010,10,20,17,10,15.90
2010,10,20,17,11,15.90
2010,10,20,17,12,15.80
2010,10,20,17,13,15.80
2010,10,20,17,14,15.80
2010,10,20,17,15,15.80
2010,10,20,17,16,15.80
2010,10,20,17,17,15.80
2010,10,20,17,18,15.70
2010,10,20,17,19,15.70
2010,10,20,17,20,15.70
2010,10,20,17,21,15.70
2010,10,20,17,22,15.70
2010,10,20,17,23,15.60
2010,10,20,17,24,15.60
2010,10,20,17,25,15.60
2010,10,20,17,26,15.60
2010,10,20,17,27,15.60
2010,10,20,17,28,15.60
2010,10,20,17,29,15.60
2010,10,20,17,30,15.50
2010,10,20,17,31,15.50
2010,10,20,17,32,15.40
2010,10,20,17,33,15.40
2010,10,20,17,34,15.40
2010,10,20,17,35,15.30
2010,10,20,17,36,15.30
2010,10,20,17,37,15.30
2010,10,20,17,38,15.30
2010,10,20,17,39,15.30
2010,10,20,17,40,15.30
2010,10,20,17,41,15.30